Terminal Aerodrome Forecast
Issued by NWS Pueblo, CO

Home | Current Version | Previous Version | Text Only | Print | Product List | Glossary On
Versions: 1 2 3 4 5 6 7 8 9 10 11 12 13 14 15 16 17 18 19 20 21 22 23 24 25 26 27 28 29 30 31 32 33 34 35 36 37 38
000
FTUS45 KPUB 011120
TAFPUB
TAF
KPUB 011120Z 0112/0212 32005KT P6SM FEW200
     FM011700 12006KT P6SM SCT110 SCT200
     FM012200 15010KT P6SM VCTS SCT070CB BKN130
     FM020300 30008KT P6SM SCT070 BKN150
     FM020700 VRB05KT P6SM SCT150=

USA.gov is the U.S. government's official web portal to all federal, state and local government web resources and services.